Location: Melizzano
(41.1500°N, 14.5000°E)
Time: 09:24:47
(UTC+00:00)

Cosmos 1709 Rocket - Pass Details

Date: 04 October 2021
Orbit: 948 x 1002 km, 82.9° (Epoch: 27 October)

Event Time Altitude Azimuth Distance (km) Brightness Sun altitude
Rises 03:24:56 0° 348° (NNW) 3,631 7.0 -19.0°
Reaches altitude 10° 03:27:28 10° 344° (NNW) 2,686 6.3 -18.5°
Maximum altitude 03:33:26 56° 268° (W) 1,125 4.0 -17.4°
Drops below altitude 10° 03:39:26 10° 192° (SSW) 2,697 6.1 -16.3°
Sets 03:41:59 0° 188° (S) 3,648 6.8 -15.8°
